Year,Month,Day,Hour,Minute,Value (Times are PST for temperature in C)
2018,06,12,00,00,8.40
2018,06,12,00,01,8.40
2018,06,12,00,02,8.40
2018,06,12,00,03,8.40
2018,06,12,00,04,8.40
2018,06,12,00,05,8.40
2018,06,12,00,06,8.40
2018,06,12,00,07,8.40
2018,06,12,00,08,8.30
2018,06,12,00,09,8.30
2018,06,12,00,10,8.30
2018,06,12,00,11,8.30
2018,06,12,00,12,8.30
2018,06,12,00,13,8.30
2018,06,12,00,14,8.20
2018,06,12,00,15,8.20
2018,06,12,00,16,8.20
2018,06,12,00,17,8.20
2018,06,12,00,18,8.20
2018,06,12,00,19,8.20
2018,06,12,00,20,8.20
2018,06,12,00,21,8.20
2018,06,12,00,22,8.10
2018,06,12,00,23,8.10
2018,06,12,00,24,8.10
2018,06,12,00,25,8.10
2018,06,12,00,26,8.10
2018,06,12,00,27,8.10
2018,06,12,00,28,8.10
2018,06,12,00,29,8.10
2018,06,12,00,30,8.10
2018,06,12,00,31,8.10
2018,06,12,00,32,8.10
2018,06,12,00,33,8.00
2018,06,12,00,34,8.00
2018,06,12,00,35,8.00
2018,06,12,00,36,8.00
2018,06,12,00,37,8.00
2018,06,12,00,38,8.00
2018,06,12,00,39,7.90
2018,06,12,00,40,7.90
2018,06,12,00,41,7.90
2018,06,12,00,42,7.90
2018,06,12,00,43,7.90
2018,06,12,00,44,7.90
2018,06,12,00,45,7.90
2018,06,12,00,46,7.80
2018,06,12,00,47,7.80
2018,06,12,00,48,7.80
2018,06,12,00,49,7.80
2018,06,12,00,50,7.80
2018,06,12,00,51,7.80
2018,06,12,00,52,7.80
2018,06,12,00,53,7.80
2018,06,12,00,54,7.80
2018,06,12,00,55,7.70
2018,06,12,00,56,7.70
2018,06,12,00,57,7.70
2018,06,12,00,58,7.70
2018,06,12,00,59,7.70
2018,06,12,01,00,7.70
2018,06,12,01,01,7.70
2018,06,12,01,02,7.70
2018,06,12,01,03,7.70
2018,06,12,01,04,7.70
2018,06,12,01,05,7.70
2018,06,12,01,06,7.70
2018,06,12,01,07,7.70
2018,06,12,01,08,7.60
2018,06,12,01,09,7.60
2018,06,12,01,10,7.60
2018,06,12,01,11,7.60
2018,06,12,01,12,7.60
2018,06,12,01,13,7.60
2018,06,12,01,14,7.60
2018,06,12,01,15,7.60
2018,06,12,01,16,7.60
2018,06,12,01,17,7.50
2018,06,12,01,18,7.50
2018,06,12,01,19,7.50
2018,06,12,01,20,7.40
2018,06,12,01,21,7.40
2018,06,12,01,22,7.40
2018,06,12,01,23,7.40
2018,06,12,01,24,7.40
2018,06,12,01,25,7.30
2018,06,12,01,26,7.30
2018,06,12,01,27,7.30
2018,06,12,01,28,7.30
2018,06,12,01,29,7.30
2018,06,12,01,30,7.30
2018,06,12,01,31,7.20
2018,06,12,01,32,7.20
2018,06,12,01,33,7.20
2018,06,12,01,34,7.20
2018,06,12,01,35,7.20
2018,06,12,01,36,7.20
2018,06,12,01,37,7.20
2018,06,12,01,38,7.20
2018,06,12,01,39,7.10
2018,06,12,01,40,7.10
2018,06,12,01,41,7.10
2018,06,12,01,42,7.10
2018,06,12,01,43,7.10
2018,06,12,01,44,7.10
2018,06,12,01,45,7.10
2018,06,12,01,46,7.10
2018,06,12,01,47,7.10
2018,06,12,01,48,7.10
2018,06,12,01,49,7.10
2018,06,12,01,50,7.10
2018,06,12,01,51,7.00
2018,06,12,01,52,7.00
2018,06,12,01,53,7.00
2018,06,12,01,54,7.00
2018,06,12,01,55,7.00
2018,06,12,01,56,7.00
2018,06,12,01,57,7.00
2018,06,12,01,58,7.00
2018,06,12,01,59,7.00
2018,06,12,02,00,7.00
2018,06,12,02,01,6.90
2018,06,12,02,02,6.90
2018,06,12,02,03,6.90
2018,06,12,02,04,6.90
2018,06,12,02,05,6.90
2018,06,12,02,06,6.90
2018,06,12,02,07,6.90
2018,06,12,02,08,6.90
2018,06,12,02,09,6.90
2018,06,12,02,10,6.90
2018,06,12,02,11,6.80
2018,06,12,02,12,6.80
2018,06,12,02,13,6.80
2018,06,12,02,14,6.80
2018,06,12,02,15,6.80
2018,06,12,02,16,6.80
2018,06,12,02,17,6.80
2018,06,12,02,18,6.80
2018,06,12,02,19,6.80
2018,06,12,02,20,6.70
2018,06,12,02,21,6.70
2018,06,12,02,22,6.70
2018,06,12,02,23,6.70
2018,06,12,02,24,6.70
2018,06,12,02,25,6.60
2018,06,12,02,26,6.60
2018,06,12,02,27,6.60
2018,06,12,02,28,6.60
2018,06,12,02,29,6.60
2018,06,12,02,30,6.50
2018,06,12,02,31,6.50
2018,06,12,02,32,6.50
2018,06,12,02,33,6.50
2018,06,12,02,34,6.40
2018,06,12,02,35,6.40
2018,06,12,02,36,6.40
2018,06,12,02,37,6.40
2018,06,12,02,38,6.40
2018,06,12,02,39,6.40
2018,06,12,02,40,6.40
2018,06,12,02,41,6.40
2018,06,12,02,42,6.40
2018,06,12,02,43,6.40
2018,06,12,02,44,6.40
2018,06,12,02,45,6.40
2018,06,12,02,46,6.40
2018,06,12,02,47,6.30
2018,06,12,02,48,6.30
2018,06,12,02,49,6.30
2018,06,12,02,50,6.30
2018,06,12,02,51,6.30
2018,06,12,02,52,6.30
2018,06,12,02,53,6.30
2018,06,12,02,54,6.30
2018,06,12,02,55,6.30
2018,06,12,02,56,6.30
2018,06,12,02,57,6.30
2018,06,12,02,58,6.30
2018,06,12,02,59,6.30
2018,06,12,03,00,6.30
2018,06,12,03,01,6.30
2018,06,12,03,02,6.30
2018,06,12,03,03,6.30
2018,06,12,03,04,6.30
2018,06,12,03,05,6.20
2018,06,12,03,06,6.20
2018,06,12,03,07,6.20
2018,06,12,03,08,6.20
2018,06,12,03,09,6.20
2018,06,12,03,10,6.20
2018,06,12,03,11,6.20
2018,06,12,03,12,6.20
2018,06,12,03,13,6.20
2018,06,12,03,14,6.20
2018,06,12,03,15,6.20
2018,06,12,03,16,6.20
2018,06,12,03,17,6.20
2018,06,12,03,18,6.10
2018,06,12,03,19,6.10
2018,06,12,03,20,6.10
2018,06,12,03,21,6.10
2018,06,12,03,22,6.10
2018,06,12,03,23,6.10
2018,06,12,03,24,6.10
2018,06,12,03,25,6.10
2018,06,12,03,26,6.10
2018,06,12,03,27,6.10
2018,06,12,03,28,6.10
2018,06,12,03,29,6.10
2018,06,12,03,30,6.10
2018,06,12,03,31,6.10
2018,06,12,03,32,6.10
2018,06,12,03,33,6.10
2018,06,12,03,34,6.10
2018,06,12,03,35,6.10
2018,06,12,03,36,6.10
2018,06,12,03,37,6.10
2018,06,12,03,38,6.10
2018,06,12,03,39,6.00
2018,06,12,03,40,6.00
2018,06,12,03,41,6.00
2018,06,12,03,42,6.00
2018,06,12,03,43,6.00
2018,06,12,03,44,6.00
2018,06,12,03,45,6.00
2018,06,12,03,46,5.90
2018,06,12,03,47,5.90
2018,06,12,03,48,5.90
2018,06,12,03,49,5.90
2018,06,12,03,50,5.90
2018,06,12,03,51,5.90
2018,06,12,03,52,5.90
2018,06,12,03,53,5.90
2018,06,12,03,54,5.90
2018,06,12,03,55,5.90
2018,06,12,03,56,5.80
2018,06,12,03,57,5.80
2018,06,12,03,58,5.80
2018,06,12,03,59,5.80
2018,06,12,04,00,5.80
2018,06,12,04,01,5.80
2018,06,12,04,02,5.80
2018,06,12,04,03,5.80
2018,06,12,04,04,5.80
2018,06,12,04,05,5.80
2018,06,12,04,06,5.80
2018,06,12,04,07,5.70
2018,06,12,04,08,5.70
2018,06,12,04,09,5.70
2018,06,12,04,10,5.70
2018,06,12,04,11,5.70
2018,06,12,04,12,5.70
2018,06,12,04,13,5.70
2018,06,12,04,14,5.70
2018,06,12,04,15,5.70
2018,06,12,04,16,5.70
2018,06,12,04,17,5.70
2018,06,12,04,18,5.70
2018,06,12,04,19,5.70
2018,06,12,04,20,5.70
2018,06,12,04,21,5.70
2018,06,12,04,22,5.60
2018,06,12,04,23,5.70
2018,06,12,04,24,5.60
2018,06,12,04,25,5.60
2018,06,12,04,26,5.60
2018,06,12,04,27,5.60
2018,06,12,04,28,5.60
2018,06,12,04,29,5.60
2018,06,12,04,30,5.60
2018,06,12,04,31,5.60
2018,06,12,04,32,5.60
2018,06,12,04,33,5.60
2018,06,12,04,34,5.60
2018,06,12,04,35,5.60
2018,06,12,04,36,5.60
2018,06,12,04,37,5.60
2018,06,12,04,38,5.60
2018,06,12,04,39,5.50
2018,06,12,04,40,5.50
2018,06,12,04,41,5.50
2018,06,12,04,42,5.50
2018,06,12,04,43,5.50
2018,06,12,04,44,5.50
2018,06,12,04,45,5.40
2018,06,12,04,46,5.40
2018,06,12,04,47,5.40
2018,06,12,04,48,5.40
2018,06,12,04,49,5.40
2018,06,12,04,50,5.40
2018,06,12,04,51,5.40
2018,06,12,04,52,5.40
2018,06,12,04,53,5.40
2018,06,12,04,54,5.40
2018,06,12,04,55,5.40
2018,06,12,04,56,5.40
2018,06,12,04,57,5.40
2018,06,12,04,58,5.40
2018,06,12,04,59,5.40
2018,06,12,05,00,5.40
2018,06,12,05,01,5.40
2018,06,12,05,02,5.40
2018,06,12,05,03,5.40
2018,06,12,05,04,5.40
2018,06,12,05,05,5.40
2018,06,12,05,06,5.40
2018,06,12,05,07,5.40
2018,06,12,05,08,5.40
2018,06,12,05,09,5.40
2018,06,12,05,10,5.40
2018,06,12,05,11,5.40
2018,06,12,05,12,5.40
2018,06,12,05,13,5.40
2018,06,12,05,14,5.40
2018,06,12,05,15,5.40
2018,06,12,05,16,5.40
2018,06,12,05,17,5.40
2018,06,12,05,18,5.40
2018,06,12,05,19,5.40
2018,06,12,05,20,5.40
2018,06,12,05,21,5.40
2018,06,12,05,22,5.40
2018,06,12,05,23,5.40
2018,06,12,05,24,5.40
2018,06,12,05,25,5.40
2018,06,12,05,26,5.40
2018,06,12,05,27,5.40
2018,06,12,05,28,5.40
2018,06,12,05,29,5.40
2018,06,12,05,30,5.40
2018,06,12,05,31,5.40
2018,06,12,05,32,5.40
2018,06,12,05,33,5.40
2018,06,12,05,34,5.40
2018,06,12,05,35,5.40
2018,06,12,05,36,5.40
2018,06,12,05,37,5.40
2018,06,12,05,38,5.50
2018,06,12,05,39,5.50
2018,06,12,05,40,5.50
2018,06,12,05,41,5.50
2018,06,12,05,42,5.60
2018,06,12,05,43,5.60
2018,06,12,05,44,5.60
2018,06,12,05,45,5.60
2018,06,12,05,46,5.60
2018,06,12,05,47,5.60
2018,06,12,05,48,5.60
2018,06,12,05,49,5.70
2018,06,12,05,50,5.70
2018,06,12,05,51,5.70
2018,06,12,05,52,5.70
2018,06,12,05,53,5.70
2018,06,12,05,54,5.70
2018,06,12,05,55,5.70
2018,06,12,05,56,5.80
2018,06,12,05,57,5.80
2018,06,12,05,58,5.80
2018,06,12,05,59,5.80
2018,06,12,06,00,5.80
2018,06,12,06,01,5.80
2018,06,12,06,02,5.90
2018,06,12,06,03,5.90
2018,06,12,06,04,5.90
2018,06,12,06,05,5.90
2018,06,12,06,06,5.90
2018,06,12,06,07,6.00
2018,06,12,06,08,6.00
2018,06,12,06,09,6.00
2018,06,12,06,10,6.10
2018,06,12,06,11,6.10
2018,06,12,06,12,6.10
2018,06,12,06,13,6.10
2018,06,12,06,14,6.10
2018,06,12,06,15,6.10
2018,06,12,06,16,6.20
2018,06,12,06,17,6.20
2018,06,12,06,18,6.20
2018,06,12,06,19,6.20
2018,06,12,06,20,6.30
2018,06,12,06,21,6.30
2018,06,12,06,22,6.30
2018,06,12,06,23,6.40
2018,06,12,06,24,6.40
2018,06,12,06,25,6.40
2018,06,12,06,26,6.50
2018,06,12,06,27,6.50
2018,06,12,06,28,6.60
2018,06,12,06,29,6.60
2018,06,12,06,30,6.60
2018,06,12,06,31,6.70
2018,06,12,06,32,6.70
2018,06,12,06,33,6.80
2018,06,12,06,34,6.80
2018,06,12,06,35,6.80
2018,06,12,06,36,6.90
2018,06,12,06,37,6.90
2018,06,12,06,38,6.90
2018,06,12,06,39,7.00
2018,06,12,06,40,7.00
2018,06,12,06,41,7.10
2018,06,12,06,42,7.10
2018,06,12,06,43,7.20
2018,06,12,06,44,7.20
2018,06,12,06,45,7.20
2018,06,12,06,46,7.30
2018,06,12,06,47,7.30
2018,06,12,06,48,7.30
2018,06,12,06,49,7.40
2018,06,12,06,50,7.40
2018,06,12,06,51,7.50
2018,06,12,06,52,7.50
2018,06,12,06,53,7.50
2018,06,12,06,54,7.60
2018,06,12,06,55,7.60
2018,06,12,06,56,7.70
2018,06,12,06,57,7.70
2018,06,12,06,58,7.80
2018,06,12,06,59,7.90
2018,06,12,07,00,7.90
2018,06,12,07,01,8.00
2018,06,12,07,02,8.00
2018,06,12,07,03,8.10
2018,06,12,07,04,8.10
2018,06,12,07,05,8.20
2018,06,12,07,06,8.20
2018,06,12,07,07,8.20
2018,06,12,07,08,8.30
2018,06,12,07,09,8.30
2018,06,12,07,10,8.40
2018,06,12,07,11,8.40
2018,06,12,07,12,8.50
2018,06,12,07,13,8.60
2018,06,12,07,14,8.60
2018,06,12,07,15,8.70
2018,06,12,07,16,8.80
2018,06,12,07,17,8.80
2018,06,12,07,18,8.90
2018,06,12,07,19,9.00
2018,06,12,07,20,9.00
2018,06,12,07,21,9.10
2018,06,12,07,22,9.20
2018,06,12,07,23,9.30
2018,06,12,07,24,9.30
2018,06,12,07,25,9.40
2018,06,12,07,26,9.50
2018,06,12,07,27,9.60
2018,06,12,07,28,9.60
2018,06,12,07,29,9.70
2018,06,12,07,30,9.80
2018,06,12,07,31,9.80
2018,06,12,07,32,9.90
2018,06,12,07,33,10.00
2018,06,12,07,34,10.10
2018,06,12,07,35,10.20
2018,06,12,07,36,10.30
2018,06,12,07,37,10.40
2018,06,12,07,38,10.40
2018,06,12,07,39,10.50
2018,06,12,07,40,10.60
2018,06,12,07,41,10.60
2018,06,12,07,42,10.70
2018,06,12,07,43,10.70
2018,06,12,07,44,10.80
2018,06,12,07,45,10.80
2018,06,12,07,46,10.90
2018,06,12,07,47,10.90
2018,06,12,07,48,11.00
2018,06,12,07,49,11.10
2018,06,12,07,50,11.10
2018,06,12,07,51,11.20
2018,06,12,07,52,11.30
2018,06,12,07,53,11.30
2018,06,12,07,54,11.40
2018,06,12,07,55,11.50
2018,06,12,07,56,11.50
2018,06,12,07,57,11.60
2018,06,12,07,58,11.70
2018,06,12,07,59,11.70
2018,06,12,08,00,11.80
2018,06,12,08,01,11.90
2018,06,12,08,02,11.90
2018,06,12,08,03,12.00
2018,06,12,08,04,12.10
2018,06,12,08,05,12.20
2018,06,12,08,06,12.30
2018,06,12,08,07,12.30
2018,06,12,08,08,12.40
2018,06,12,08,09,12.50
2018,06,12,08,10,12.60
2018,06,12,08,11,12.70
2018,06,12,08,12,12.70
2018,06,12,08,13,12.80
2018,06,12,08,14,12.90
2018,06,12,08,15,12.90
2018,06,12,08,16,13.00
2018,06,12,08,17,13.10
2018,06,12,08,18,13.20
2018,06,12,08,19,13.20
2018,06,12,08,20,13.30
2018,06,12,08,21,13.40
2018,06,12,08,22,13.50
2018,06,12,08,23,13.60
2018,06,12,08,24,13.60
2018,06,12,08,25,13.70
2018,06,12,08,26,13.80
2018,06,12,08,27,13.90
2018,06,12,08,28,13.90
2018,06,12,08,29,14.00
2018,06,12,08,30,14.00
2018,06,12,08,31,14.10
2018,06,12,08,32,14.10
2018,06,12,08,33,14.10
2018,06,12,08,34,14.20
2018,06,12,08,35,14.20
2018,06,12,08,36,14.20
2018,06,12,08,37,14.20
2018,06,12,08,38,14.20
2018,06,12,08,39,14.20
2018,06,12,08,40,14.20
2018,06,12,08,41,14.20
2018,06,12,08,42,14.20
2018,06,12,08,43,14.20
2018,06,12,08,44,14.20
2018,06,12,08,45,14.20
2018,06,12,08,46,14.20
2018,06,12,08,47,14.20
2018,06,12,08,48,14.20
2018,06,12,08,49,14.20
2018,06,12,08,50,14.20
2018,06,12,08,51,14.20
2018,06,12,08,52,14.30
2018,06,12,08,53,14.30
2018,06,12,08,54,14.30
2018,06,12,08,55,14.20
2018,06,12,08,56,14.20
2018,06,12,08,57,14.20
2018,06,12,08,58,14.30
2018,06,12,08,59,14.30
2018,06,12,09,00,14.30
2018,06,12,09,01,14.30
2018,06,12,09,02,14.30
2018,06,12,09,03,14.30
2018,06,12,09,04,14.30
2018,06,12,09,05,14.30
2018,06,12,09,06,14.40
2018,06,12,09,07,14.40
2018,06,12,09,08,14.40
2018,06,12,09,09,14.40
2018,06,12,09,10,14.40
2018,06,12,09,11,14.40
2018,06,12,09,12,14.40
2018,06,12,09,13,14.50
2018,06,12,09,14,14.50
2018,06,12,09,15,14.50
2018,06,12,09,16,14.40
2018,06,12,09,17,14.40
2018,06,12,09,18,14.40
2018,06,12,09,19,14.40
2018,06,12,09,20,14.40
2018,06,12,09,21,14.40
2018,06,12,09,22,14.40
2018,06,12,09,23,14.40
2018,06,12,09,24,14.50
2018,06,12,09,25,14.50
2018,06,12,09,26,14.60
2018,06,12,09,27,14.60
2018,06,12,09,28,14.60
2018,06,12,09,29,14.60
2018,06,12,09,30,14.70
2018,06,12,09,31,14.70
2018,06,12,09,32,14.70
2018,06,12,09,33,14.70
2018,06,12,09,34,14.80
2018,06,12,09,35,14.80
2018,06,12,09,36,14.80
2018,06,12,09,37,14.80
2018,06,12,09,38,14.90
2018,06,12,09,39,14.90
2018,06,12,09,40,14.90
2018,06,12,09,41,14.90
2018,06,12,09,42,15.00
2018,06,12,09,43,15.00
2018,06,12,09,44,15.00
2018,06,12,09,45,15.10
2018,06,12,09,46,15.10
2018,06,12,09,47,15.20
2018,06,12,09,48,15.20
2018,06,12,09,49,15.20
2018,06,12,09,50,15.30
2018,06,12,09,51,15.30
2018,06,12,09,52,15.30
2018,06,12,09,53,15.20
2018,06,12,09,54,15.20
2018,06,12,09,55,15.20
2018,06,12,09,56,15.10
2018,06,12,09,57,15.10
2018,06,12,09,58,15.10
2018,06,12,09,59,15.10
2018,06,12,10,00,15.10
2018,06,12,10,01,15.00
2018,06,12,10,02,15.00
2018,06,12,10,03,15.00
2018,06,12,10,04,15.00
2018,06,12,10,05,15.00
2018,06,12,10,06,15.00
2018,06,12,10,07,15.00
2018,06,12,10,08,15.00
2018,06,12,10,09,15.00
2018,06,12,10,10,15.00
2018,06,12,10,11,15.00
2018,06,12,10,12,15.00
2018,06,12,10,13,15.00
2018,06,12,10,14,15.00
2018,06,12,10,15,15.00
2018,06,12,10,16,15.00
2018,06,12,10,17,15.00
2018,06,12,10,18,15.00
2018,06,12,10,19,15.00
2018,06,12,10,20,15.00
2018,06,12,10,21,15.00
2018,06,12,10,22,15.10
2018,06,12,10,23,15.10
2018,06,12,10,24,15.10
2018,06,12,10,25,15.10
2018,06,12,10,26,15.10
2018,06,12,10,27,15.20
2018,06,12,10,28,15.20
2018,06,12,10,29,15.20
2018,06,12,10,30,15.30
2018,06,12,10,31,15.20
2018,06,12,10,32,15.20
2018,06,12,10,33,15.20
2018,06,12,10,34,15.20
2018,06,12,10,35,15.20
2018,06,12,10,36,15.30
2018,06,12,10,37,15.30
2018,06,12,10,38,15.20
2018,06,12,10,39,15.20
2018,06,12,10,40,15.20
2018,06,12,10,41,15.20
2018,06,12,10,42,15.20
2018,06,12,10,43,15.20
2018,06,12,10,44,15.20
2018,06,12,10,45,15.20
2018,06,12,10,46,15.20
2018,06,12,10,47,15.30
2018,06,12,10,48,15.30
2018,06,12,10,49,15.40
2018,06,12,10,50,15.40
2018,06,12,10,51,15.40
2018,06,12,10,52,15.50
2018,06,12,10,53,15.50
2018,06,12,10,54,15.50
2018,06,12,10,55,15.50
2018,06,12,10,56,15.50
2018,06,12,10,57,15.50
2018,06,12,10,58,15.60
2018,06,12,10,59,15.60
2018,06,12,11,00,15.60
2018,06,12,11,01,15.60
2018,06,12,11,02,15.70
2018,06,12,11,03,15.70
2018,06,12,11,04,15.80
2018,06,12,11,05,15.80
2018,06,12,11,06,15.80
2018,06,12,11,07,15.80
2018,06,12,11,08,15.80
2018,06,12,11,09,15.70
2018,06,12,11,10,15.70
2018,06,12,11,11,15.60
2018,06,12,11,12,15.50
2018,06,12,11,13,15.50
2018,06,12,11,14,15.50
2018,06,12,11,15,15.40
2018,06,12,11,16,15.40
2018,06,12,11,17,15.40
2018,06,12,11,18,15.40
2018,06,12,11,19,15.40
2018,06,12,11,20,15.40
2018,06,12,11,21,15.40
2018,06,12,11,22,15.40
2018,06,12,11,23,15.50
2018,06,12,11,24,15.50
2018,06,12,11,25,15.50
2018,06,12,11,26,15.60
2018,06,12,11,27,15.60
2018,06,12,11,28,15.60
2018,06,12,11,29,15.50
2018,06,12,11,30,15.50
2018,06,12,11,31,15.50
2018,06,12,11,32,15.50
2018,06,12,11,33,15.50
2018,06,12,11,34,15.50
2018,06,12,11,35,15.50
2018,06,12,11,36,15.60
2018,06,12,11,37,15.60
2018,06,12,11,38,15.60
2018,06,12,11,39,15.60
2018,06,12,11,40,15.60
2018,06,12,11,41,15.60
2018,06,12,11,42,15.70
2018,06,12,11,43,15.70
2018,06,12,11,44,15.70
2018,06,12,11,45,15.70
2018,06,12,11,46,15.70
2018,06,12,11,47,15.70
2018,06,12,11,48,15.70
2018,06,12,11,49,15.70
2018,06,12,11,50,15.70
2018,06,12,11,51,15.60
2018,06,12,11,52,15.60
2018,06,12,11,53,15.60
2018,06,12,11,54,15.60
2018,06,12,11,55,15.60
2018,06,12,11,56,15.60
2018,06,12,11,57,15.60
2018,06,12,11,58,15.60
2018,06,12,11,59,15.60
2018,06,12,12,00,15.60
2018,06,12,12,01,15.70
2018,06,12,12,02,15.70
2018,06,12,12,03,15.70
2018,06,12,12,04,15.70
2018,06,12,12,05,15.70
2018,06,12,12,06,15.70
2018,06,12,12,07,15.70
2018,06,12,12,08,15.70
2018,06,12,12,09,15.70
2018,06,12,12,10,15.80
2018,06,12,12,11,15.80
2018,06,12,12,12,15.80
2018,06,12,12,13,15.80
2018,06,12,12,14,15.80
2018,06,12,12,15,15.80
2018,06,12,12,16,15.80
2018,06,12,12,17,15.80
2018,06,12,12,18,15.80
2018,06,12,12,19,15.80
2018,06,12,12,20,15.80
2018,06,12,12,21,15.80
2018,06,12,12,22,15.80
2018,06,12,12,23,15.80
2018,06,12,12,24,15.70
2018,06,12,12,25,15.70
2018,06,12,12,26,15.70
2018,06,12,12,27,15.70
2018,06,12,12,28,15.60
2018,06,12,12,29,15.60
2018,06,12,12,30,15.60
2018,06,12,12,31,15.60
2018,06,12,12,32,15.60
2018,06,12,12,33,15.60
2018,06,12,12,34,15.60
2018,06,12,12,35,15.60
2018,06,12,12,36,15.70
2018,06,12,12,37,15.70
2018,06,12,12,38,15.60
2018,06,12,12,39,15.60
2018,06,12,12,40,15.60
2018,06,12,12,41,15.60
2018,06,12,12,42,15.60
2018,06,12,12,43,15.60
2018,06,12,12,44,15.60
2018,06,12,12,45,15.60
2018,06,12,12,46,15.70
2018,06,12,12,47,15.70
2018,06,12,12,48,15.70
2018,06,12,12,49,15.70
2018,06,12,12,50,15.70
2018,06,12,12,51,15.70
2018,06,12,12,52,15.70
2018,06,12,12,53,15.80
2018,06,12,12,54,15.80
2018,06,12,12,55,15.80
2018,06,12,12,56,15.80
2018,06,12,12,57,15.90
2018,06,12,12,58,15.90
2018,06,12,12,59,15.90
2018,06,12,13,00,16.00
2018,06,12,13,01,16.10
2018,06,12,13,02,16.10
2018,06,12,13,03,16.10
2018,06,12,13,04,16.10
2018,06,12,13,05,16.10
2018,06,12,13,06,16.20
2018,06,12,13,07,16.20
2018,06,12,13,08,16.20
2018,06,12,13,09,16.20
2018,06,12,13,10,16.20
2018,06,12,13,11,16.20
2018,06,12,13,12,16.20
2018,06,12,13,13,16.20
2018,06,12,13,14,16.20
2018,06,12,13,15,16.20
2018,06,12,13,16,16.30
2018,06,12,13,17,16.30
2018,06,12,13,18,16.30
2018,06,12,13,19,16.30
2018,06,12,13,20,16.20
2018,06,12,13,21,16.20
2018,06,12,13,22,16.20
2018,06,12,13,23,16.20
2018,06,12,13,24,16.20
2018,06,12,13,25,16.20
2018,06,12,13,26,16.10
2018,06,12,13,27,16.10
2018,06,12,13,28,16.20
2018,06,12,13,29,16.20
2018,06,12,13,30,16.20
2018,06,12,13,31,16.20
2018,06,12,13,32,16.20
2018,06,12,13,33,16.20
2018,06,12,13,34,16.20
2018,06,12,13,35,16.20
2018,06,12,13,36,16.10
2018,06,12,13,37,16.10
2018,06,12,13,38,16.10
2018,06,12,13,39,16.10
2018,06,12,13,40,16.10
2018,06,12,13,41,16.10
2018,06,12,13,42,16.10
2018,06,12,13,43,16.10
2018,06,12,13,44,16.10
2018,06,12,13,45,16.10
2018,06,12,13,46,16.10
2018,06,12,13,47,16.10
2018,06,12,13,48,16.10
2018,06,12,13,49,16.10
2018,06,12,13,50,16.00
2018,06,12,13,51,16.00
2018,06,12,13,52,16.00
2018,06,12,13,53,16.00
2018,06,12,13,54,16.00
2018,06,12,13,55,16.00
2018,06,12,13,56,16.00
2018,06,12,13,57,16.00
2018,06,12,13,58,16.10
2018,06,12,13,59,16.20
2018,06,12,14,00,16.20
2018,06,12,14,01,16.30
2018,06,12,14,02,16.40
2018,06,12,14,03,16.50
2018,06,12,14,04,16.60
2018,06,12,14,05,16.50
2018,06,12,14,06,16.50
2018,06,12,14,07,16.40
2018,06,12,14,08,16.30
2018,06,12,14,09,16.30
2018,06,12,14,10,16.30
2018,06,12,14,11,16.30
2018,06,12,14,12,16.30
2018,06,12,14,13,16.40
2018,06,12,14,14,16.50
2018,06,12,14,15,16.60
2018,06,12,14,16,16.70
2018,06,12,14,17,16.80
2018,06,12,14,18,16.70
2018,06,12,14,19,16.70
2018,06,12,14,20,16.60
2018,06,12,14,21,16.60
2018,06,12,14,22,16.60
2018,06,12,14,23,16.60
2018,06,12,14,24,16.60
2018,06,12,14,25,16.70
2018,06,12,14,26,16.70
2018,06,12,14,27,16.70
2018,06,12,14,28,16.70
2018,06,12,14,29,16.70
2018,06,12,14,30,16.70
2018,06,12,14,31,16.70
2018,06,12,14,32,16.70
2018,06,12,14,33,16.70
2018,06,12,14,34,16.70
2018,06,12,14,35,16.70
2018,06,12,14,36,16.70
2018,06,12,14,37,16.70
2018,06,12,14,38,16.70
2018,06,12,14,39,16.70
2018,06,12,14,40,16.70
2018,06,12,14,41,16.70
2018,06,12,14,42,16.70
2018,06,12,14,43,16.60
2018,06,12,14,44,16.60
2018,06,12,14,45,16.60
2018,06,12,14,46,16.60
2018,06,12,14,47,16.70
2018,06,12,14,48,16.70
2018,06,12,14,49,16.70
2018,06,12,14,50,16.70
2018,06,12,14,51,16.70
2018,06,12,14,52,16.70
2018,06,12,14,53,16.70
2018,06,12,14,54,16.70
2018,06,12,14,55,16.70
2018,06,12,14,56,16.80
2018,06,12,14,57,16.80
2018,06,12,14,58,16.80
2018,06,12,14,59,16.80
2018,06,12,15,00,16.80
2018,06,12,15,01,16.80
2018,06,12,15,02,16.90
2018,06,12,15,03,16.90
2018,06,12,15,04,17.00
2018,06,12,15,05,17.00
2018,06,12,15,06,17.10
2018,06,12,15,07,17.20
2018,06,12,15,08,17.20
2018,06,12,15,09,17.30
2018,06,12,15,10,17.30
2018,06,12,15,11,17.30
2018,06,12,15,12,17.30
2018,06,12,15,13,17.30
2018,06,12,15,14,17.30
2018,06,12,15,15,17.30
2018,06,12,15,16,17.40
2018,06,12,15,17,17.50
2018,06,12,15,18,17.50
2018,06,12,15,19,17.60
2018,06,12,15,20,17.50
2018,06,12,15,21,17.40
2018,06,12,15,22,17.40
2018,06,12,15,23,17.30
2018,06,12,15,24,17.30
2018,06,12,15,25,17.30
2018,06,12,15,26,17.30
2018,06,12,15,27,17.30
2018,06,12,15,28,17.30
2018,06,12,15,29,17.30
2018,06,12,15,30,17.20
2018,06,12,15,31,17.20
2018,06,12,15,32,17.20
2018,06,12,15,33,17.20
2018,06,12,15,34,17.20
2018,06,12,15,35,17.20
2018,06,12,15,36,17.30
2018,06,12,15,37,17.30
2018,06,12,15,38,17.30
2018,06,12,15,39,17.30
2018,06,12,15,40,17.30
2018,06,12,15,41,17.30
2018,06,12,15,42,17.30
2018,06,12,15,43,17.30
2018,06,12,15,44,17.20
2018,06,12,15,45,17.20
2018,06,12,15,46,17.10
2018,06,12,15,47,17.10
2018,06,12,15,48,17.10
2018,06,12,15,49,17.10
2018,06,12,15,50,17.10
2018,06,12,15,51,17.00
2018,06,12,15,52,17.00
2018,06,12,15,53,17.00
2018,06,12,15,54,17.00
2018,06,12,15,55,17.00
2018,06,12,15,56,17.00
2018,06,12,15,57,16.90
2018,06,12,15,58,16.90
2018,06,12,15,59,16.90
2018,06,12,16,00,16.90
2018,06,12,16,01,16.90
2018,06,12,16,02,16.90
2018,06,12,16,03,17.00
2018,06,12,16,04,17.00
2018,06,12,16,05,17.00
2018,06,12,16,06,16.90
2018,06,12,16,07,16.90
2018,06,12,16,08,16.90
2018,06,12,16,09,16.80
2018,06,12,16,10,16.80
2018,06,12,16,11,16.80
2018,06,12,16,12,16.80
2018,06,12,16,13,16.80
2018,06,12,16,14,16.80
2018,06,12,16,15,16.80
2018,06,12,16,16,16.80
2018,06,12,16,17,16.80
2018,06,12,16,18,16.80
2018,06,12,16,19,16.80
2018,06,12,16,20,16.80
2018,06,12,16,21,16.70
2018,06,12,16,22,16.70
2018,06,12,16,23,16.70
2018,06,12,16,24,16.70
2018,06,12,16,25,16.70
2018,06,12,16,26,16.60
2018,06,12,16,27,16.60
2018,06,12,16,28,16.60
2018,06,12,16,29,16.50
2018,06,12,16,30,16.60
2018,06,12,16,31,16.60
2018,06,12,16,32,16.60
2018,06,12,16,33,16.60
2018,06,12,16,34,16.70
2018,06,12,16,35,16.70
2018,06,12,16,36,16.70
2018,06,12,16,37,16.70
2018,06,12,16,38,16.80
2018,06,12,16,39,16.80
2018,06,12,16,40,16.90
2018,06,12,16,41,16.90
2018,06,12,16,42,16.90
2018,06,12,16,43,16.90
2018,06,12,16,44,16.80
2018,06,12,16,45,16.80
2018,06,12,16,46,16.80
2018,06,12,16,47,16.80
2018,06,12,16,48,16.80
2018,06,12,16,49,16.90
2018,06,12,16,50,16.90
2018,06,12,16,51,16.90
2018,06,12,16,52,16.90
2018,06,12,16,53,17.00
2018,06,12,16,54,17.00
2018,06,12,16,55,17.00
2018,06,12,16,56,17.10
2018,06,12,16,57,17.10
2018,06,12,16,58,17.10
2018,06,12,16,59,17.10
2018,06,12,17,00,17.20
2018,06,12,17,01,17.20
2018,06,12,17,02,17.20
2018,06,12,17,03,17.20
2018,06,12,17,04,17.30
2018,06,12,17,05,17.30
2018,06,12,17,06,17.30
2018,06,12,17,07,17.30
2018,06,12,17,08,17.30
2018,06,12,17,09,17.40
2018,06,12,17,10,17.30
2018,06,12,17,11,17.30
2018,06,12,17,12,17.30
2018,06,12,17,13,17.30
2018,06,12,17,14,17.30
2018,06,12,17,15,17.40
2018,06,12,17,16,17.40
2018,06,12,17,17,17.40
2018,06,12,17,18,17.40
2018,06,12,17,19,17.40
2018,06,12,17,20,17.40
2018,06,12,17,21,17.50
2018,06,12,17,22,17.50
2018,06,12,17,23,17.50
2018,06,12,17,24,17.60
2018,06,12,17,25,17.60
2018,06,12,17,26,17.70
2018,06,12,17,27,17.70
2018,06,12,17,28,17.80
2018,06,12,17,29,17.80
2018,06,12,17,30,17.90
2018,06,12,17,31,18.00
2018,06,12,17,32,18.00
2018,06,12,17,33,18.00
2018,06,12,17,34,18.00
2018,06,12,17,35,18.00
2018,06,12,17,36,18.00
2018,06,12,17,37,18.00
2018,06,12,17,38,18.00
2018,06,12,17,39,17.90